EW4115 Athens GR current weather conditions

sailwx.info

Wind from 244

Air temperature 13.9° C
Dewpoint 11.4° C

Last reported at 2020-Jan-26 10:01 UTC.
Time now 2020-Jan-26 10:32 UTC

Location: N 38°02' E 023°47'.
View on Google Maps.

See reports from other nearby stations

  
Tides and Currents Weather Stations Pressure Air Temp Water Temp Dewpoint Dewpoint Depression Visibility Wind Speed Wind Dir Waves Ship Positions
date/time (UTC)wind fromknots sea level pressurealtimeterstation pressurevisibilityair tempwater tempwave heightnotes
2020-Jan-26 10:01 244 13.9
2020-Jan-26 09:46 244 13.3
2020-Jan-26 09:30 244 12.8
2020-Jan-26 09:15 244 12.2
2020-Jan-26 09:00 244 11.7
2020-Jan-26 08:45 244 11.7
2020-Jan-26 08:30 244 11.1
2020-Jan-26 08:15 244 11.1
2020-Jan-26 08:00 244 10.6
2020-Jan-26 07:45 244 9.4
2020-Jan-26 07:17 244 7.8
2020-Jan-26 07:01 244 7.2
2020-Jan-26 06:47 244 7.2
2020-Jan-26 06:31 244 7.2
2020-Jan-26 06:17 244 6.7
2020-Jan-26 06:03 244 6.7
2020-Jan-26 05:47 244 6.7
2020-Jan-26 05:32 244 6.7
2020-Jan-26 05:17 244 6.7
2020-Jan-26 05:01 244 6.7
2020-Jan-26 04:46 244 6.7
2020-Jan-26 04:31 244 6.7
2020-Jan-26 04:16 244 6.7
2020-Jan-26 04:02 244 6.7
2020-Jan-26 03:46 244 6.7
2020-Jan-26 03:31 244 6.7
2020-Jan-26 03:16 244 6.7
2020-Jan-26 03:01 244 7.2
2020-Jan-26 02:46 244 7.2
2020-Jan-26 02:30 244 7.2
2020-Jan-26 02:18 244 7.2
2020-Jan-26 02:00 244 7.2
2020-Jan-26 01:46 244 7.2
2020-Jan-26 01:31 244 7.2
2020-Jan-26 01:16 244 7.2
2020-Jan-26 01:01 244 7.2
2020-Jan-26 00:45 244 7.2
2020-Jan-26 00:30 244 7.2
2020-Jan-26 00:16 244 7.2
2020-Jan-26 00:01 244 7.2
2020-Jan-25 23:45 244 7.2
2020-Jan-25 23:31 244 7.2
2020-Jan-25 23:15 244 7.2
2020-Jan-25 23:00 244 7.2
2020-Jan-25 22:45 244 7.2
2020-Jan-25 22:30 244 7.2
2020-Jan-25 22:15 244 7.2
2020-Jan-25 22:00 244 7.8
2020-Jan-25 21:45 244 7.8
2020-Jan-25 21:30 244 7.8
2020-Jan-25 21:15 244 7.8
2020-Jan-25 21:00 244 7.8
2020-Jan-25 20:32 244 8.3
2020-Jan-25 20:15 244 8.3
2020-Jan-25 19:48 244 8.3
2020-Jan-25 19:30 244 8.3
2020-Jan-25 19:01 244 8.9
2020-Jan-25 18:45 244 8.9
2020-Jan-25 18:16 244 9.4
2020-Jan-25 17:30 244 10.0
2020-Jan-25 17:15 244 10.0
2020-Jan-25 16:45 244 10.6
2020-Jan-25 16:30 244 11.1
2020-Jan-25 16:17 244 11.7
2020-Jan-25 16:00 244 11.7
2020-Jan-25 15:32 244 12.8
2020-Jan-25 15:15 244 12.8
2020-Jan-25 14:47 244 13.3
2020-Jan-25 14:30 244 13.3
2020-Jan-25 14:01 243 13.3
2020-Jan-25 13:45 234 13.3
2020-Jan-25 13:15 265 13.9
2020-Jan-25 12:45 138 14.4
2020-Jan-25 12:18 147 14.4
2020-Jan-25 12:00 181 14.4
2020-Jan-25 11:32 261 13.9
2020-Jan-25 11:01 244 1 gusting 6 13.3
2020-Jan-25 10:15 229 13.3
2020-Jan-25 10:00 227 0 gusting 5 12.8
2020-Jan-25 09:45 223 12.8
2020-Jan-25 09:32 234 12.2
2020-Jan-25 09:18 223 12.2
2020-Jan-25 09:02 221 11.7
2020-Jan-25 08:46 219 10.6
2020-Jan-25 08:33 216 10.0
2020-Jan-25 08:16 215 8.9
2020-Jan-25 08:01 207 8.3
2020-Jan-25 07:47 163 7.2
2020-Jan-25 07:30 161 6.1
2020-Jan-25 07:15 161 5.6
2020-Jan-25 07:00 161 4.4
2020-Jan-25 06:45 161 3.9
2020-Jan-25 06:30 161 3.3
2020-Jan-25 06:15 161 2.8
2020-Jan-25 06:00 161 2.8
2020-Jan-25 05:45 161 2.8
2020-Jan-25 05:30 161 2.8
2020-Jan-25 05:15 161 2.8
2020-Jan-25 05:00 161 2.8
2020-Jan-25 04:45 161 2.8
2020-Jan-25 04:30 161 2.8
2020-Jan-25 04:15 161 2.8
2020-Jan-25 04:02 161 2.8
2020-Jan-25 03:48 161 2.8
2020-Jan-25 03:32 161 3.3
2020-Jan-25 03:16 161 3.3
2020-Jan-25 03:02 161 3.3
2020-Jan-25 02:48 161 3.3
2020-Jan-25 02:32 161 3.3
2020-Jan-25 02:16 161 3.3
2020-Jan-25 02:02 161 3.3
2020-Jan-25 01:46 161 3.3
2020-Jan-25 01:33 161 3.3
2020-Jan-25 01:17 161 3.3
2020-Jan-25 01:01 161 3.3
2020-Jan-25 00:46 161 3.3
2020-Jan-25 00:32 161 3.3
2020-Jan-25 00:16 161 3.3
2020-Jan-25 00:01 161 3.3
2020-Jan-24 23:46 161 3.9
2020-Jan-24 23:31 161 3.9
2020-Jan-24 23:17 161 3.9
2020-Jan-24 23:00 161 3.9
2020-Jan-24 22:45 161 3.9
2020-Jan-24 22:31 161 3.9
2020-Jan-24 22:15 161 3.9
2020-Jan-24 22:00 161 4.4
2020-Jan-24 21:45 161 4.4
2020-Jan-24 21:30 161 4.4
2020-Jan-24 21:15 161 4.4
2020-Jan-24 21:00 161 4.4
2020-Jan-24 20:45 161 5.0
2020-Jan-24 20:30 161 5.0
2020-Jan-24 20:15 161 5.0
2020-Jan-24 20:00 161 5.0
2020-Jan-24 19:45 161 5.0
2020-Jan-24 19:30 161 5.6
2020-Jan-24 19:15 161 5.6
2020-Jan-24 19:00 161 5.6
2020-Jan-24 18:45 161 5.6
2020-Jan-24 18:30 161 6.1
2020-Jan-24 18:15 161 6.1
2020-Jan-24 18:00 161 6.7
2020-Jan-24 17:45 161 6.7
2020-Jan-24 17:30 161 7.2
2020-Jan-24 17:15 161 7.2
2020-Jan-24 17:00 161 7.8
2020-Jan-24 16:45 161 7.8
2020-Jan-24 16:32 161 8.3
2020-Jan-24 16:17 161 8.9
2020-Jan-24 16:03 161 8.9
2020-Jan-24 15:46 161 9.4
2020-Jan-24 15:32 161 9.4
2020-Jan-24 15:19 161 10.0
2020-Jan-24 15:03 161 10.0
2020-Jan-24 14:47 161 10.0
2020-Jan-24 14:31 162 10.6
2020-Jan-24 14:18 165 10.6
2020-Jan-24 14:01 090 10.6
2020-Jan-24 13:46 095 11.1
2020-Jan-24 13:31 055 0 gusting 3 11.1
2020-Jan-24 13:16 063 11.1
2020-Jan-24 13:01 080 11.7
2020-Jan-24 12:45 059 11.7
2020-Jan-24 12:31 057 11.7
2020-Jan-24 12:16 057 11.7
2020-Jan-24 12:01 042 12.2
2020-Jan-24 11:45 024 11.7
2020-Jan-24 11:17 066 11.7
2020-Jan-24 11:00 065 11.7
2020-Jan-24 10:31 055 11.1
2020-Jan-24 10:15 063 0 gusting 5 11.1